GW2593 Weather Reports


time (UTC)temp
F
wind
direction
speed
knots
gust
knots
rain 1hr
in
rain 24hr
in
rain mn
in
humidity
%
barometer
mb
20260506091743 68 0.0 0.0 0.00 0.00 0.00 88 1017.4
20260506084742 68 0.0 0.0 0.00 0.00 0.00 87 1017.4
20260506081741 68 0.0 0.0 0.00 0.00 0.00 87 1017.5
20260506071732 68 0.0 0.0 0.00 0.00 0.00 87 1017.2
20260506061731 68 0.0 0.0 0.00 0.00 0.00 87 1018.0
20260506044723 68 0.0 0.0 0.00 0.00 0.00 84 1018.7
20260506041722 69 0.0 0.0 0.00 0.00 0.00 83 1019.0
20260506034720 69 0.0 0.0 0.00 0.00 0.00 83 1019.0
20260506031720 69 0.0 0.0 0.00 0.00 0.00 82 1019.3
20260506024720 69 0.0 0.0 0.00 0.00 0.00 81 1019.5
20260506021720 69 0.0 0.0 0.00 0.00 0.00 80 1019.2
20260506014721 69 0.0 0.0 0.00 0.00 0.00 80 1019.0
20260506011719 69 0.0 0.0 0.00 0.00 0.00 77 1019.2
20260506004717 70 0.0 0.0 0.00 0.00 0.00 77 1019.0
20260506001713 70 0.0 0.0 0.00 0.00 0.00 76 1019.0
20260505234708 71 0.0 0.0 0.00 0.00 0.00 73 1018.7
20260505231703 72 0.0 0.0 0.00 0.00 0.00 73 1018.9
20260505224702 73 0.0 0.0 0.00 0.00 0.00 71 1019.2
20260505221701 73 0.0 0.0 0.00 0.00 0.00 70 1019.2
20260505214656 75 0.0 0.0 0.00 0.00 0.00 68 1018.8
20260505211656 76 0.0 0.0 0.00 0.00 0.00 67 1019.3
20260505204656 77 0.0 0.0 0.00 0.00 0.00 66 1019.1
20260505201654 77 0.0 0.0 0.00 0.00 0.00 64 1019.1
20260505194654 76 0.0 0.0 0.00 0.00 0.00 64 1019.6
20260505191650 77 0.0 0.0 0.00 0.00 0.00 64 1019.8
20260505184651 77 0.0 0.0 0.00 0.00 0.00 62 1020.2
20260505181649 77 0.0 0.0 0.00 0.00 0.00 65 1020.4
20260505174647 77 0.0 0.0 0.00 0.00 0.00 63 1020.4
20260505171643 78 0.0 0.0 0.00 0.00 0.00 62 1020.6
20260505164643 78 0.0 0.0 0.00 0.00 0.00 62 1020.7
20260505161640 78 0.0 0.0 0.00 0.00 0.00 63 1020.9
20260505151634 78 0.0 0.0 0.00 0.00 0.00 65 1021.1
20260505124618 75 0.0 0.0 0.00 0.00 0.00 73 1020.5
20260505121616 73 0.0 0.0 0.00 0.00 0.00 77 1020.3
20260505114612 69 0.0 0.0 0.00 0.00 0.00 85 1020.2
20260505111607 66 0.0 0.0 0.00 0.00 0.00 85 1019.9
20260505101601 66 0.0 0.0 0.00 0.00 0.00 85 1018.9
20260505094556 66 0.0 0.0 0.00 0.00 0.00 84 1018.7